Content
SEND FEEDBACK

Daily
Averages
Monthly
Summary
United States of America

ST. LOUIS, MISSOURI


Home > North America > United States > Missouri
Elevation: 535 feet     Latitude: 38 45N     Longitude: 090 22W

WEATHER
 
SELECT A DAY
Number of Records: 199,638;   Date Range: 1/1/95 - 10/20/14
 
SHARE

PRINT THIS DATA

[ ← Previous Day ]
WEATHER ALMANAC - FEBRUARY 24, 2014
[ Next Day → ]
[ °C ]   °F
Weather ElementAverageHighLow
Temperature28.5 °F36 °F (1:54 pm)19 °F (2:54 am)
Dewpoint12.7 °F17.1 °F (11:54 pm)8.1 °F (11:54 am)
Humidity54.7 %88 % (4:54 am)33 % (1:54 pm)
Barometer30.34 in30.43 in (9:54 am)30.25 in (10:54 pm)
Wind Speed4.8 mph9.2 mph (7:54 pm)
Weather ElementAverage
Visibility10 mi
Wind DirectionNE (40 °)

Weather ElementTotal
Precipitation---
Heating Degree Days37.5 (Base 65)
Averaged from 23 records on February 24, 2014
WEATHER CONDITIONS BREAKOUT
WIND DIRECTION BREAKOUT
WEATHER BY HOUR - FEBRUARY 24, 2014
[ °C ]   °F
Local TimeTemperatureDewpointHumidityBarometerVisibilityWind DirectionWind SpeedGust SpeedPrecipitationEventsConditions
1:54 AM19.9 °F15.1 °F81 %30.38 in10.0 miCalmClear
2:54 AM19.0 °F15.1 °F85 %30.38 in10.0 miWSW (250°)4.6 mphClear
3:54 AM19.0 °F14.0 °F81 %30.36 in10.0 miCalmClear
4:54 AM19.0 °F16.0 °F88 %30.38 in10.0 miCalmClear
5:54 AM19.0 °F15.1 °F85 %30.41 in10.0 miCalmClear
6:54 AM23.0 °F14.0 °F68 %30.40 in10.0 miNNE (20°)3.5 mphPartly Cloudy
7:54 AM25.0 °F14.0 °F63 %30.40 in10.0 miNE (40°)6.9 mphOvercast
8:54 AM28.0 °F10.9 °F49 %30.42 in10.0 miNorth (10°)4.6 mphScattered Clouds
9:54 AM30.9 °F10.0 °F42 %30.43 in10.0 miVariable5.8 mphClear
10:54 AM32.0 °F9.0 °F38 %30.43 in10.0 miVariable3.5 mphClear
11:54 AM32.0 °F8.1 °F37 %30.41 in10.0 miNE (50°)3.5 mphOvercast
12:54 PM35.1 °F9.0 °F34 %30.37 in10.0 miVariable5.8 mphOvercast
1:54 PM36.0 °F9.0 °F33 %30.35 in10.0 miVariable3.5 mphClear
2:54 PM36.0 °F10.0 °F34 %30.32 in10.0 miVariable3.5 mphClear
3:54 PM36.0 °F10.0 °F34 %30.29 in10.0 miEast (80°)5.8 mphScattered Clouds
4:54 PM34.0 °F10.0 °F37 %30.27 in10.0 miNE (40°)8.1 mphClear
5:54 PM30.9 °F12.0 °F46 %30.29 in10.0 miNE (50°)8.1 mphScattered Clouds
6:54 PM30.0 °F10.9 °F45 %30.28 in10.0 miNE (50°)8.1 mphMostly Cloudy
7:54 PM30.0 °F15.1 °F54 %30.27 in10.0 miENE (60°)9.2 mphMostly Cloudy
8:54 PM30.0 °F15.1 °F54 %30.26 in10.0 miEast (90°)8.1 mphOvercast
9:54 PM30.0 °F16.0 °F56 %30.28 in10.0 miNE (50°)8.1 mphMostly Cloudy
10:54 PM30.0 °F16.0 °F56 %30.25 in10.0 miEast (80°)5.8 mphOvercast
11:54 PM30.0 °F17.1 °F59 %30.25 in10.0 miNE (50°)4.6 mphOvercast
Hourly data recorded from KSUS, located miles away from St. Louis, Missouri







STORIES FROM OUR PARTNERS